Flag for Poland Weather past 2 weeks in Gdańsk, Poland

Now
50 °F

Passing clouds.


Feels Like: 46 °F
Forecast: 47 / 56 °F
Wind: 9 mph from West

Location: Gdansk-Rebiechowo

Current Time: Sep 22, 2014 at 11:21:16 PM

Latest Report: Sep 22, 2014 at 11:00 PM


Visibility: N/A

Pressure: 29.65 "Hg

Humidity: 94%

Dew point: 48 °F

Location of GdańskLocation

Historic Weather in Gdańsk — Graph

°F

Gdańsk temperature yesterday

Maximum temperature yesterday: 64 °F (at 11:00 AM)
Minimum temperature yesterday: 48 °F (at 4:00 AM)
Average temperature yesterday: 58 °F

Past Weeks' High & Low Weather Summary

 TemperatureHumidityPressure
High72 °F (Sep 8, 1:00 PM)100% (Sep 8, 10:30 PM)30.27 "Hg (Sep 8, 10:30 PM)
Low45 °F (Sep 18, 5:00 AM)40% (Sep 18, 2:30 PM)29.56 "Hg (Sep 22, 7:30 AM)
Average59 °F81%30.04 "Hg
* Reported Sep 7 10:00 PM — Sep 22 10:00 PM, Gdańsk, Weather by CustomWeather, © 2014

Note: Actual official high and low records may vary slightly from our data, if they occured in-between our weather recording intervals... More about our weather records

Advertising

Gdańsk weather history for previous 24 hours

 ConditionsComfort  
Time TempWeatherWind HumidityBarometerVisibility
10:00 PM
Sep 22
48 °FPassing clouds.9 mph94%29.65 "HgN/A
9:30 PM48 °FPassing clouds.9 mph94%29.65 "HgN/A
9:00 PM48 °FClear.8 mph94%29.65 "Hg10 mi
8:30 PM50 °FPassing clouds.8 mph88%29.65 "HgN/A
8:00 PM50 °FPassing clouds.10 mph88%29.68 "HgN/A
7:30 PM52 °FScattered clouds.9 mph82%29.65 "HgN/A
7:00 PM52 °FScattered clouds.10 mph82%29.65 "HgN/A
6:30 PM52 °FPassing clouds.12 mph77%29.65 "HgN/A
6:00 PM54 °FPassing clouds.12 mph72%29.65 "HgN/A
5:30 PM54 °FPassing clouds.13 mph77%29.65 "HgN/A
5:00 PM55 °FScattered clouds.17 mph72%29.65 "HgN/A
4:30 PM55 °FScattered clouds.18 mph77%29.65 "HgN/A
4:00 PM57 °FScattered clouds.16 mph63%29.62 "HgN/A
3:30 PM57 °FPassing clouds.16 mph67%29.62 "HgN/A
3:00 PM57 °FScattered clouds.17 mph67%29.62 "HgN/A
2:30 PM57 °FScattered clouds.15 mph67%29.62 "HgN/A
2:00 PM59 °FScattered clouds.10 mph68%29.62 "HgN/A
1:30 PM57 °FScattered clouds.13 mph67%29.62 "HgN/A
1:00 PM57 °FScattered clouds.15 mph72%29.62 "HgN/A
12:30 PM57 °FPartly sunny.16 mph67%29.62 "HgN/A
12:00 PM57 °FPartly sunny.13 mph77%29.59 "HgN/A
11:30 AM57 °FPartly sunny.14 mph72%29.59 "HgN/A
11:00 AM55 °FPartly sunny.14 mph77%29.59 "HgN/A
10:30 AM55 °FPartly sunny.13 mph77%29.59 "HgN/A
10:00 AM55 °FScattered clouds.14 mph77%29.59 "HgN/A
9:30 AM55 °FPartly sunny.13 mph82%29.59 "HgN/A
9:00 AM54 °FPartly sunny.13 mph88%29.59 "HgN/A
8:30 AM54 °FScattered clouds.10 mph88%29.56 "HgN/A
8:00 AM52 °FPassing clouds.8 mph94%29.56 "HgN/A
7:30 AM52 °FPassing clouds.7 mph94%29.56 "HgN/A
7:00 AM52 °FPassing clouds.7 mph94%29.59 "HgN/A
6:30 AM52 °FPassing clouds.7 mph94%29.59 "HgN/A
6:00 AM52 °FPassing clouds.7 mph94%29.59 "HgN/A
5:30 AM52 °FPassing clouds.7 mph94%29.59 "HgN/A
5:00 AM54 °FPassing clouds.8 mph88%29.59 "HgN/A
4:30 AM54 °FClear.6 mph88%29.59 "Hg10 mi
4:00 AM54 °FPassing clouds.7 mph94%29.59 "HgN/A
3:30 AM54 °FPassing clouds.6 mph94%29.59 "HgN/A
3:00 AM54 °FPassing clouds.7 mph94%29.62 "HgN/A
2:00 AM55 °FPassing clouds.7 mph88%29.62 "HgN/A
1:30 AM55 °FPassing clouds.8 mph88%29.62 "HgN/A
1:00 AM55 °FPassing clouds.8 mph94%29.65 "HgN/A
12:30 AM55 °FPassing clouds.7 mph94%29.65 "HgN/A
12:00 AM57 °FPassing clouds.8 mph88%29.65 "Hg5 mi
11:30 PM
Sep 21
57 °FPassing clouds.6 mph94%29.65 "Hg4 mi
11:00 PM57 °FPassing clouds.7 mph94%29.65 "Hg4 mi
Weather by CustomWeather, © 2014

See weather overviewHow to use our weather pages